This demonstration page uses our WeatherBlox Daily Observations layout. Learn more.

Left ArrowRight Arrow

41.86663, -103.66717

Hourly Observations for March 6, 2020

Temp ( °F °C ) Dew Point ( °F °C ) Humidity (%) Winds ( mph kmh ) Pressure ( in mb ) Visibility ( mi km ) Precip ( " mm )
12:53 am 00:53 Clear 28 -2.2 16 -8.9 60 60 E 10 17 30.35 1028 10 16 N/A
1:53 am 01:53 Clear 29 -1.7 17 -8.3 61 61 E 8 13 30.32 1027 10 16 N/A
2:53 am 02:53 Clear 29 -1.7 17 -8.3 61 61 E 10 17 30.29 1026 10 16 N/A
3:53 am 03:53 Clear 28 -2.2 17 -8.3 63 63 ENE 7 11 30.28 1025 10 16 N/A
4:53 am 04:53 Clear 26 -3.3 17 -8.3 69 69 E 7 11 30.28 1026 10 16 N/A
5:53 am 05:53 Clear 24 -4.4 17 -8.3 75 75 N N/A 30.32 1027 10 16 N/A
6:53 am 06:53 Sunny 25 -3.9 18 -7.8 75 75 NNE 6 9 30.32 1027 10 16 N/A
7:53 am 07:53 Sunny 36 2.2 22 -5.6 57 57 ESE 6 9 30.31 1026 10 16 N/A
8:53 am 08:53 Sunny 41 5 23 -5 49 49 N N/A 30.28 1025 10 16 N/A
9:53 am 09:53 Sunny 49 9.4 24 -4.4 38 38 SE 3 6 30.25 1024 10 16 N/A
10:53 am 10:53 Sunny 58 14.4 23 -5 26 26 N N/A 30.21 1023 10 16 N/A
11:53 am 11:53 Sunny 67 19.4 21 -6.1 17 17 WNW 8 13 30.15 1021 10 16 N/A
12:53 pm 12:53 Sunny 69 20.6 21 -6.1 16 16 W 7 11 30.11 1020 10 16 N/A
1:53 pm 13:53 Sunny 70 21.1 17 -8.3 13 13 N N/A 30.07 1018 10 16 N/A
2:53 pm 14:53 Sunny 72 22.2 17 -8.3 12 12 S 7 11 30.04 1017 10 16 N/A
3:53 pm 15:53 Sunny 72 22.2 9 -12.8 8 8 WNW 8 13 30.03 1017 10 16 N/A
4:53 pm 16:53 Sunny 69 20.6 10 -12.2 10 10 WNW 10 17 30.04 1017 10 16 N/A
5:53 pm 17:53 Clear 58 14.4 12 -11.1 16 16 NNW 5 7 30.07 1018 10 16 N/A
6:53 pm 18:53 Clear 50 10 14 -10 24 24 NNW 5 7 30.10 1019 10 16 N/A
7:53 pm 19:53 Clear 43 6.1 14 -10 31 31 ESE 6 9 30.09 1019 10 16 N/A
8:53 pm 20:53 Clear 40 4.4 15 -9.4 36 36 ESE 5 7 30.09 1019 10 16 N/A
9:53 pm 21:53 Clear 38 3.3 16 -8.9 41 41 NNE 5 7 30.07 1018 10 16 N/A
10:53 pm 22:53 Clear 35 1.7 19 -7.2 52 52 N N/A 30.03 1017 10 16 N/A
11:53 pm 23:53 Clear 34 1.1 18 -7.8 52 52 NNW 9 15 29.99 1016 10 16 N/A

Powered by AerisWeather